Regional Weather Roundup
Issued by NWS Jackson, KY

Home | Current Version | Previous Version | Text Only | Print | Product List | Glossary Off
Versions: 1 2 3 4 5 6 7 8 9 10 11 12 13 14 15 16 17 18 19 20 21 22 23 24 25 26 27 28 29 30 31 32 33 34 35 36 37 38 39 40 41 42 43 44 45 46 47 48 49 50

000
ASUS43 KJKL 010910
RWRJKL

EAST KENTUCKY HOURLY WEATHER ROUNDUP
NATIONAL WEATHER SERVICE JACKSON KY
400 AM EST SUN MAR 01 2015

NOTE: "FAIR" INDICATES FEW OR NO CLOUDS BELOW 12,000 FEET WITH
NO SIGNIFICANT WEATHER AND/OR OBSTRUCTIONS TO VISIBILITY.

* THESE REPORTS ARE NOT UNDER NWS QUALITY CONTROL AND MAY NOT
  REPORT WEATHER SUCH AS PRECIPITATION AND FOG.

KYZ079-080-083-085-087-088-110-112-115-119-120-011000
...EASTERN KENTUCKY...

CITY           SKY/WX    TMP DP  RH WIND       PRES   REMARKS
JACKSON        CLOUDY    36  17  46 E3        30.39F
LONDON         CLOUDY    36  26  67 CALM      30.39S
SOMERSET*      CLOUDY    34  28  80 SE3       30.39F
MONTICELLO*    CLOUDY    39  32  76 CALM      30.40F
MIDDLESBORO*   CLOUDY    35  31  85 CALM      30.41F
BLACK MTN*       N/A     30  23  74 E2          N/A
PIKEVILLE APT* LGT RAIN  37  25  60 CALM      30.39F
BIG SANDY*     CLOUDY    33  24  72 CALM      30.41R
MOREHEAD APT*  CLOUDY    32  16  51 E6        30.42F WCI  26
$$

KYZ035-036-041-042-044-050-067-078-099-011000
...CENTRAL KENTUCKY...

CITY           SKY/WX    TMP DP  RH WIND       PRES   REMARKS
MT STERLING*   CLOUDY    32  21  64 SE7       30.40F WCI  26
FLEMING/MASON* CLOUDY    30  18  59 E6        30.40F WCI  24
DANVILLE*      CLOUDY    32  27  80 CALM      30.38F
RICHMOND*      CLOUDY    34  23  64 E6        30.37F WCI  29
LEXINGTON      CLOUDY    33  21  61 E6        30.37F WCI  28
FRANKFORT        N/A     31  23  72 E6        30.37F WCI  25
$$

KYZ091>093-OHZ055-061-077-WVZ005-015-034-035-042-011000
...SOUTHERN OHIO/WEST VIRGINIA...

CITY           SKY/WX    TMP DP  RH WIND       PRES   REMARKS
COVINGTON      LGT SNOW  26  23  88 SE7       30.38F FOG     WCI  18
COLUMBUS       LGT SNOW  23  21  92 SE7       30.39F VSB 1   WCI  15
DAYTON         LGT SNOW  24  22  91 CALM      30.38F FOG
WILMINGTON     FRZ RAIN  26  23  88 SE6       30.37F FOG     WCI  19
HUNTINGTON     CLOUDY    30  15  53 CALM      30.43F
CHARLESTON     CLOUDY    31  23  72 CALM      30.42F
PINEVILLE*     CLOUDY    33  29  83 MISG      30.46F
BECKLEY        CLOUDY    30  16  56 SE8       30.40F WCI  22
BLUEFIELD      CLOUDY    33  19  56 S10G18    30.40F WCI  25
$$

VAZ002-007-008-TNZ017-027-036-066-071-011000
...SOUTHWEST VIRGINIA/EAST TENNESSEE...

CITY           SKY/WX    TMP DP  RH WIND       PRES   REMARKS
WISE*          CLOUDY    37  21  52 S7        30.38S WCI  32
JONESVILLE*    CLOUDY    37  27  65 N3        30.43F
ABINGDON*      CLOUDY    36  22  56 E7        30.41F WCI  30
BRISTOL        CLOUDY    34  26  72 CALM      30.42F
KNOXVILLE      PTCLDY    33  28  81 S3        30.42S
OAK RIDGE      CLOUDY    42  28  57 VRB3      30.43F
CROSSVILLE     CLOUDY    42  32  67 S9G17     30.37F
NASHVILLE      MOCLDY    41  30  65 CALM      30.36S
$$

...KEY TO REMARKS...
VSB - VISIBILITY IN MILES
WCI - WIND CHILL INDEX
HX  - HEAT INDEX

$$



USA.gov is the U.S. government's official web portal to all federal, state and local government web resources and services.